Location: Goheenville
(40.9070°N, 79.3720°W)
Time: 02:16:40
(UTC-04:00)

Meteor 2-10 Rocket - Visible Passes

Search period start: 25 July 2016 00:00
Search period end: 04 August 2016 00:00
Orbit: 735 x 884 km, 81.2° (Epoch: 23 July)

Date Brightness Start Highest point End Pass type
(mag) Time Alt. Az. Time Alt. Az. Time Alt. Az.
25 Jul 3.9 21:03:48 10° N 21:09:36 64° ENE 21:15:14 10° SSE visible
25 Jul 6.2 22:47:26 10° NW 22:51:00 17° W 22:54:32 10° WSW visible
26 Jul 5.9 22:22:30 10° NW 22:26:58 24° W 22:31:22 10° SW visible
27 Jul 5.4 21:57:49 10° NNW 22:02:54 32° W 22:07:51 10° SSW visible
28 Jul 4.9 21:33:18 10° NNW 21:38:47 45° W 21:44:05 10° SSW visible
29 Jul 4.3 21:08:54 10° NNW 21:14:37 63° W 21:20:08 10° S visible
30 Jul 6.7 22:30:29 10° WNW 22:31:26 10° W 22:32:22 10° W visible
31 Jul 6.4 22:04:17 10° NW 22:07:27 15° W 22:10:34 10° WSW visible
01 Aug 6.2 21:39:14 10° NW 21:43:26 21° W 21:47:32 10° SW visible
02 Aug 5.8 21:14:30 10° NNW 21:19:22 29° W 21:24:06 10° SSW visible
